Regional Weather Roundup
Issued by NWS Cleveland, OH

Home | Current Version | Previous Version | Graphics & Text | Print | Product List | Glossary On
Versions: 1 2 3 4 5 6 7 8 9 10 11 12 13 14 15 16 17 18 19 20 21 22 23 24 25 26 27 28 29 30 31 32 33 34 35 36 37 38 39 40 41 42 43 44 45 46 47 48 49 50
000
ASUS41 KCLE 222010
RWRCLE
OHIO REGIONAL WEATHER ROUNDUP
NATIONAL WEATHER SERVICE CLEVELAND, OH
400 PM EDT MON SEP 22 2014

NOTE: "FAIR" INDICATES FEW OR NO CLOUDS BELOW 12,000 FEET WITH NO
SIGNIFICANT WEATHER AND/OR OBSTRUCTIONS TO VISIBILITY.

OHZ001>008-015>018-024>027-034-035-043-044-222100-
   NORTHWEST OHIO

CITY           SKY/WX    TMP DP  RH WIND       PRES   REMARKS
DEFIANCE       SUNNY    N/A N/A N/A VRB6      30.21F
FINDLAY        SUNNY     63  40  42 VRB6      30.20F
TOLEDO EXPRESS SUNNY     63  40  42 NW8       30.20F
TOLEDO EXEC    SUNNY     61  39  44 W8        30.20F
LIMA           SUNNY     63  41  44 VRB5      30.22S
$$

OHZ009>014-019>023-028>033-038-089-222100-
   NORTHEAST OHIO

CITY           SKY/WX    TMP DP  RH WIND       PRES   REMARKS
CLE-HOPKINS    CLOUDY    57  43  59 W9        30.22S
CLE-LAKEFRONT  CLOUDY    56  42  59 W10       30.20R
CUY CO. ARPT   CLOUDY    54  45  71 W12       30.21R
LORAIN-ELYRIA  PTSUNNY   59  43  55 NW9       30.22S
ASHTABULA      CLOUDY    53  42  66 W10       30.20R
AKRON-CANTON   PTSUNNY   57  41  55 NW10      30.19F
WOOSTER        MOSUNNY   58  41  53 W9        30.21S
MANSFIELD      SUNNY     58  39  49 VRB7      30.21S
YOUNGSTOWN     CLOUDY    55  42  61 W8        30.18R
$$

OHZ042-051>053-060>062-070>072-077>081-222100-
  SOUTHWEST OHIO

CITY           SKY/WX    TMP DP  RH WIND       PRES   REMARKS
CINC-COVINGTON MOSUNNY   64  40  41 N5        30.21F
CINC-LUNKEN    SUNNY     65  42  43 VRB5      30.22F
HAMILTON       SUNNY     65  43  44 NW8       30.23F
DAYTON         MOSUNNY   65  40  39 NW12      30.23S
WRIGHT-PAT AFB SUNNY     64  40  41 VRB5      30.22S
DAYTON GENERAL SUNNY     63  41  44 NW6       30.21F
WILMINGTON     SUNNY     62  39  42 VRB5      30.21S
$$

OHZ036-037-039>041-045>050-054>059-063>069-073>076-082>088-222100-
  CENTRAL AND SOUTHEAST OHIO

CITY           SKY/WX    TMP DP  RH WIND       PRES   REMARKS
COLUMBUS       SUNNY     66  38  35 N12       30.20S
OSU AIRPORT    SUNNY     62  38  40 N10       30.21S
BOLTON FIELD   SUNNY     63  43  48 N8        30.21S
RICKENBACK AFB SUNNY     62  38  41 W8        30.20S
NEWARK         SUNNY     62  40  44 W6        30.20S
MARION         SUNNY     61  38  42 N7        30.21F
LANCASTER      SUNNY     65  40  39 MISG      30.20F
ZANESVILLE     SUNNY     60  40  47 NW9       30.20F
NEW PHILLY     CLOUDY    58  42  55 W7        30.21S
$$



USA.gov is the U.S. government's official web portal to all federal, state and local government web resources and services.